GW3874 Weather Reports


time (UTC)temp
C
wind
direction
speed
KPH
gust
KPH
rain 1hr
cm
rain 24hr
cm
rain mn
cm
humidity
%
barometer
mb
20260508100028 3 333 0.0 3.2 0.00 0.56 0.00 93 1002.4
20260508094507 3 333 0.0 1.6 0.00 0.58 0.00 93 1002.4
20260508093014 3 333 0.0 3.2 0.00 0.61 0.00 92 1002.2
20260508091518 4 319 1.6 4.8 0.00 0.61 0.00 92 1002.1
20260508090024 3 11 1.6 8.0 0.00 0.66 0.00 93 1002.1
20260508084528 3 352 1.6 8.0 0.00 0.69 0.00 94 1002.1
20260508083030 3 5 3.2 6.4 0.00 0.69 0.00 93 1002.0
20260508081516 3 276 0.0 3.2 0.00 0.71 0.00 93 1001.7
20260508080030 3 276 1.6 3.2 0.00 0.74 0.00 93 1001.7
20260508074526 3 248 0.0 3.2 0.00 0.74 0.00 93 1001.6
20260508073028 3 167 0.0 1.6 0.00 0.74 0.00 92 1001.7
20260508071531 3 167 1.6 4.8 0.00 0.76 0.00 93 1001.7
20260508070023 3 175 0.0 3.2 0.00 0.81 0.00 92 1001.7
20260508064539 2 175 0.0 1.6 0.00 0.84 0.00 92 1001.7
20260508063028 2 175 0.0 3.2 0.00 0.86 0.00 92 1001.7
20260508061534 2 227 0.0 3.2 0.00 0.94 0.00 91 1001.8
20260508060003 2 227 0.0 3.2 0.00 1.04 0.00 91 1001.9
20260508054504 2 213 0.0 3.2 0.00 1.12 0.00 91 1002.1
20260508053004 2 207 0.0 3.2 0.00 1.17 0.00 90 1002.1
20260508051504 2 171 0.0 3.2 0.00 1.19 0.00 90 1002.1
20260508050007 3 230 0.0 3.2 0.00 1.24 0.00 90 1002.1
20260508044502 3 173 0.0 1.6 0.00 1.27 0.00 89 1002.3
20260508043004 3 173 0.0 1.6 0.00 1.32 0.00 89 1002.3
20260508041504 3 171 0.0 6.4 0.00 1.37 0.00 89 1002.4
20260508040019 3 169 3.2 6.4 0.00 1.42 0.00 89 1002.3
20260508034506 4 169 1.6 3.2 0.00 1.47 1.42 90 1002.3
20260508033007 4 169 0.0 3.2 0.00 1.47 1.42 91 1002.4
20260508031511 4 169 0.0 3.2 0.00 1.52 1.42 91 1002.5
20260508030006 4 169 1.6 3.2 0.00 1.55 1.42 91 1002.5
20260508024518 4 169 0.0 3.2 0.00 1.55 1.42 91 1002.7
20260508023010 4 171 1.6 6.4 0.00 1.57 1.42 91 1002.7
20260508021509 4 336 1.6 3.2 0.00 1.63 1.42 91 1002.7
20260508020006 5 336 1.6 3.2 0.03 1.70 1.42 90 1002.7
20260508014506 5 336 0.0 6.4 0.03 1.73 1.42 88 1002.7
20260508013014 5 9 4.8 14.5 0.03 1.75 1.42 88 1002.8
20260508011510 5 332 4.8 22.5 0.03 1.75 1.42 86 1003.0
20260508010014 5 238 6.4 11.3 0.00 1.75 1.40 86 1003.2
20260508004507 6 348 0.0 3.2 0.00 1.75 1.40 82 1002.5
20260508003012 6 348 1.6 3.2 0.00 1.75 1.40 83 1002.4
20260508001516 6 350 1.6 4.8 0.00 1.78 1.40 81 1002.3
20260508000015 7 334 3.2 11.3 0.00 1.80 1.40 81 1002.4
20260507234527 7 323 1.6 4.8 0.00 1.83 1.40 83 1002.2
20260507233013 7 343 4.8 6.4 0.00 1.85 1.40 82 1002.1
20260507231510 7 274 0.0 8.0 0.00 1.91 1.40 87 1002.1
20260507230017 7 318 0.0 1.6 0.00 1.96 1.40 92 1002.1
20260507224518 6 318 0.0 4.8 0.43 2.01 1.40 91 1002.0
20260507223018 6 159 0.0 3.2 0.51 2.08 1.40 91 1001.7
20260507221506 7 142 4.8 24.1 0.53 2.13 1.40 88 1001.8
20260507220010 7 135 1.6 6.4 0.53 2.21 1.40 88 1001.4
20260507214515 9 180 0.0 3.2 0.10 1.85 0.97 84 1001.1
20260507213026 10 199 0.0 3.2 0.03 1.83 0.89 78 1001.2
20260507211520 10 92 1.6 6.4 0.00 1.85 0.86 74 1000.9
20260507210009 11 352 3.2 8.0 0.00 1.91 0.86 74 1000.8
20260507204512 11 169 3.2 6.4 0.00 1.96 0.86 74 1000.9
20260507203020 9 46 1.6 6.4 0.00 1.98 0.86 76 1000.8
20260507201524 9 5 6.4 17.7 0.00 2.06 0.86 73 1000.8
20260507200024 9 334 6.4 19.3 0.00 2.21 0.86 79 1000.8
20260507194533 9 339 6.4 17.7 0.00 2.29 0.86 79 1000.7
20260507193018 8 319 8.0 22.5 0.00 2.39 0.86 75 1000.9
20260507191524 10 278 11.3 20.9 0.00 2.46 0.86 70 1000.9
20260507190040 12 11 3.2 8.0 0.00 2.49 0.86 60 1000.3
20260507184510 12 158 1.6 11.3 0.00 2.51 0.86 61 1000.4
20260507183016 12 212 3.2 9.7 0.00 2.57 0.86 64 1000.6
20260507181520 12 200 4.8 12.9 0.00 2.59 0.86 58 1000.7
20260507180026 12 263 4.8 12.9 0.00 2.64 0.86 57 1000.8
20260507174529 12 296 3.2 9.7 0.00 2.67 0.86 58 1001.0
20260507173029 11 234 4.8 12.9 0.00 2.72 0.86 61 1000.9
20260507171517 11 260 6.4 17.7 0.00 2.77 0.86 58 1001.0
20260507170023 12 278 4.8 11.3 0.00 2.92 0.86 60 1001.0
20260507164507 11 203 1.6 11.3 0.00 3.05 0.86 61 1001.2
20260507163011 11 283 1.6 11.3 0.00 3.23 0.86 64 1001.3
20260507161516 12 217 3.2 14.5 0.00 3.23 0.86 63 1001.4
20260507160004 11 237 3.2 16.1 0.00 3.30 0.86 71 1001.6
20260507154504 11 185 4.8 12.9 0.00 3.38 0.86 75 1001.8
20260507153007 10 284 3.2 12.9 0.00 3.40 0.86 75 1002.0
20260507151516 10 246 4.8 11.3 0.00 3.40 0.86 76 1002.0
20260507150016 9 339 3.2 11.3 0.00 3.40 0.86 78 1001.9
20260507144504 9 40 3.2 11.3 0.00 3.40 0.86 80 1002.1
20260507143011 9 351 4.8 14.5 0.00 3.40 0.86 81 1002.3
20260507141516 8 225 4.8 14.5 0.00 3.40 0.86 87 1002.4
20260507140019 7 294 4.8 14.5 0.00 3.40 0.86 89 1002.4
20260507134520 7 277 3.2 11.3 0.00 3.40 0.86 89 1002.8
20260507133002 7 241 3.2 6.4 0.00 3.40 0.86 90 1002.5
20260507131516 6 301 8.0 14.5 0.00 3.40 0.86 89 1002.3
20260507130011 6 271 3.2 9.7 0.00 3.40 0.86 90 1002.7
20260507124520 6 309 3.2 11.3 0.00 3.40 0.86 92 1002.8
20260507123021 6 306 6.4 14.5 0.00 3.40 0.86 91 1002.7
20260507121508 6 289 4.8 11.3 0.00 3.40 0.86 93 1002.9
20260507120010 6 289 3.2 9.7 0.00 3.40 0.86 94 1002.7
20260507114515 6 312 1.6 9.7 0.00 3.40 0.86 94 1002.7
20260507113037 5 290 6.4 14.5 0.00 3.43 0.86 95 1002.2
20260507111525 5 305 3.2 9.7 0.00 3.45 0.86 95 1002.1
20260507110028 5 309 6.4 12.9 0.00 3.48 0.86 95 1002.4
20260507104513 5 285 3.2 6.4 0.03 3.48 0.86 96 1002.5
20260507103018 5 263 0.0 12.9 0.05 3.51 0.86 96 1002.7
20260507101520 5 310 3.2 11.3 0.05 3.53 0.86 96 1002.3